Location: Unnamed
(48.6007°N, 2.4808°E)
Time: 04:32:10
(UTC+01:00)

FENGYUN 1C DEB - Pass Details

Date: 03 December 2023
Orbit: 508 x 828 km, 98.6° (Epoch: 21 February)

Event Time Altitude Azimuth Distance (km) Brightness Sun altitude
Rises 04:27:08 0° 17° (NNE) 3,295 ? -38.1°
Reaches altitude 10° 04:29:27 10° 21° (NNE) 2,398 ? -37.7°
Enters shadow 04:29:51 12° 21° (NNE) 2,246 ? -37.6°
